Location: Central Falls
(41.8900°N, 71.3929°W)
Time: 14:22:36
(UTC+00:00)

Vanguard 1 Rocket - Pass Details

Date: 12 December 2023
Orbit: 654 x 4218 km, 34.3° (Epoch: 24 February)

Event Time Altitude Azimuth Distance (km) Brightness Sun altitude
Rises 07:58:06 0° 238° (WSW) 8,328 - -44.8°
Reaches altitude 10° 08:03:54 10° 235° (SW) 7,403 - -43.7°
Exits shadow 08:19:16 42° 217° (SW) 4,982 10.7 -40.8°
Maximum altitude 08:28:59 60° 164° (SSE) 3,939 10.4 -39.0°
Drops below altitude 10° 08:45:21 10° 90° (E) 5,130 12.0 -36.0°
Sets 08:48:30 0° 86° (E) 5,763 12.5 -35.4°
